TimeEDT,TemperatureF,Dew PointF,Humidity,Sea Level PressureIn,VisibilityMPH,Wind Direction,Wind SpeedMPH,Gust SpeedMPH,PrecipitationIn,Events,Conditions,WindDirDegrees,DateUTC
12:53 AM,75.9,68.0,76,29.84,10.0,Calm,Calm,-,N/A,,Partly Cloudy,0,2013-07-21 04:53:00
1:53 AM,77.0,60.1,56,29.85,10.0,NW,5.8,-,N/A,,Scattered Clouds,320,2013-07-21 05:53:00
2:53 AM,75.9,60.1,58,29.85,10.0,Calm,Calm,-,N/A,,Mostly Cloudy,0,2013-07-21 06:53:00
3:53 AM,73.9,60.1,62,29.87,10.0,NW,8.1,-,N/A,,Overcast,310,2013-07-21 07:53:00
4:53 AM,70.0,63.0,78,29.87,10.0,North,4.6,-,0.02,,Mostly Cloudy,350,2013-07-21 08:53:00
5:53 AM,70.0,66.0,87,29.89,10.0,SSW,3.5,-,0.00,Rain,Light Rain,210,2013-07-21 09:53:00
6:53 AM,71.1,64.9,81,29.91,10.0,Calm,Calm,-,0.00,,Overcast,0,2013-07-21 10:53:00
7:53 AM,72.0,66.0,81,29.93,10.0,Calm,Calm,-,N/A,,Overcast,0,2013-07-21 11:53:00
8:35 AM,69.8,66.2,88,29.94,2.0,NE,5.8,-,0.03,Rain,Light Rain,40,2013-07-21 12:35:00
8:44 AM,69.8,66.2,88,29.94,9.0,North,4.6,-,0.03,Rain,Light Rain,10,2013-07-21 12:44:00
8:53 AM,70.0,66.9,90,29.94,10.0,North,3.5,-,0.03,,Overcast,360,2013-07-21 12:53:00
9:29 AM,71.6,68.0,88,29.95,10.0,NNW,3.5,-,N/A,Thunderstorm,Mostly Cloudy,340,2013-07-21 13:29:00
9:53 AM,70.0,66.9,90,29.96,4.0,NNE,3.5,-,0.03,Rain-Thunderstorm,Light Thunderstorms and Rain,20,2013-07-21 13:53:00
10:16 AM,69.8,66.2,88,29.95,10.0,Calm,Calm,-,0.00,,Mostly Cloudy,0,2013-07-21 14:16:00
10:53 AM,72.0,66.9,84,29.96,10.0,Calm,Calm,-,0.00,,Overcast,0,2013-07-21 14:53:00
11:53 AM,75.9,66.9,74,29.96,10.0,Variable,3.5,-,N/A,,Mostly Cloudy,0,2013-07-21 15:53:00
12:53 PM,79.0,64.9,62,29.96,10.0,Variable,4.6,-,N/A,,Mostly Cloudy,0,2013-07-21 16:53:00
1:53 PM,80.1,62.1,54,29.96,10.0,SE,6.9,-,N/A,,Clear,140,2013-07-21 17:53:00
2:53 PM,78.1,64.0,62,29.96,10.0,SE,8.1,-,N/A,,Clear,140,2013-07-21 18:53:00
3:53 PM,78.1,64.9,64,29.96,10.0,SE,8.1,-,N/A,,Clear,140,2013-07-21 19:53:00
4:53 PM,75.9,66.9,74,29.96,10.0,Variable,3.5,-,N/A,,Clear,0,2013-07-21 20:53:00
5:53 PM,75.9,66.9,74,29.95,10.0,SSE,6.9,-,N/A,,Clear,150,2013-07-21 21:53:00
6:53 PM,75.0,66.9,76,29.95,10.0,SSE,4.6,-,N/A,,Clear,150,2013-07-21 22:53:00
7:53 PM,73.0,66.9,81,29.95,10.0,Calm,Calm,-,N/A,,Clear,0,2013-07-21 23:53:00
8:53 PM,71.1,68.0,90,29.97,10.0,Calm,Calm,-,N/A,,Clear,0,2013-07-22 00:53:00
9:53 PM,70.0,68.0,93,29.99,10.0,Calm,Calm,-,N/A,,Clear,0,2013-07-22 01:53:00
10:53 PM,69.1,66.9,93,29.99,8.0,Calm,Calm,-,N/A,,Clear,0,2013-07-22 02:53:00
11:53 PM,69.1,68.0,96,29.98,7.0,Calm,Calm,-,N/A,,Clear,0,2013-07-22 03:53:00